STARLINK-31582, 59545

Orbit data source: Space-Track

STARLINK-31582, 59545 is a payload satellite owned by SpaceX/Seattle (US) in LEO that was launched on Thu, 18 Apr 2024 UTC via an FALCON 9 launch vehicle from the Air Force Eastern Test Range (AFETR). Payload-class satellites include a variety of spacecraft equipped with specific instruments for various scientific and technological missions. These include communications satellites like Starlink; space stations such as the ISS; scientific satellites like the Hubble; Earth observation satellites from companies like Planet Labs, Umbra, and HawkEye 360; GPS; miniature CubeSats for education and research; and military/defense satellites.

Loading next visibility...
Identifier
59545, 2024-074M
Orbit
LEO
Country
Flag of USUS
Related business
Manufacturer
SpaceX/Seattle
Mission
Operational Commercial Communications
Bus & Motor
STARLINK V2M, Unknown motor
Mass
730 kg wet, ~700 kg dry
Launch date (UTC)
2024-04-18 (2 years ago)
Launch vehicle
FALCON 9
Launch site
Air Force Eastern Test Range (AFETR)
Object type
Payload
Rocket body
Debris
Shape & HBR
Box + 2 Pan, 17.7 m
Radar Cross Section
33.884 m², Large (>1 m²)

Expand to show TLE details & history
Last TLE update: 2 days ago

TLE from 2 days ago
0 STARLINK-31582
1 59545U 24074M   26171.30050731 -.00001563  00000-0 -47338-4 0  9997
2 59545  43.0023 124.3423 0000991 268.4304  91.6434 15.27560709121707
Epoch: 2026-06-20T07:12Z
TLE epoch observation values (Epoch: 2026-06-20T07:12:43.831Z)
Latitude
-0.00003°
Longitude
107.64253°
Altitude
482.902 km
Speed
7.626 km/s
True Right ascension
08h 17m 22s
True Declination
0° 00' 00"
Sunlit
Object was in daylight at epoch
Visualization orbit readout
Latitude
Unknown
Longitude
Unknown
Altitude
Unknown
Speed
Unknown
Apparent Right ascension
Unknown
Apparent Declination
Unknown
Sunlit
N/A
Visualization observer readout
Local Sidereal Time
21:25:11
Azimuth
Unknown
Elevation
Unknown
Doppler factor
Unknown
Orbital elements
Apogee altitude
485.732 km
Perigee altitude
484.371 km
Semi-major axis
6,863.189 km
Eccentricity
0.0001
Inclination
43.0023°
RAAN
124.3423°
Arg. of periapsis
268.4304°
True anomaly
91.65475°
Mean anomaly
91.6434°
Eccentric anomaly
91.64908°
Mean motion
3.81728 °/min
Orbital period
94.31 mins
BSTAR
-0.000047338
Loading maneuver chart data...
Computing Atmospheric mass density...
Loading historical data...
Loading historical data...
Loading historical data...
Loading historical data...
Loading historical data...
Loading historical data...
Loading historical data...

Documentation

Showing up to 5 results
|